Flag for U.S.A. Weather past 2 weeks in Huntsville, Alabama, U.S.A.

Now
68 °F

Mostly cloudy.


Feels Like: 68 °F
Forecast: 65 / 75 °F
Wind: 9 mph from Southeast

Location: Huntsville International / Jones Field

Current Time: Apr 19, 2015 at 6:19:39 AM

Latest Report: Apr 19, 2015 at 5:53 AM


Visibility: 10 mi

Pressure: 29.70 "Hg

Humidity: 93%

Dew point: 66 °F

Location of HuntsvilleLocation

Historic Weather in Huntsville — Graph

°F

Huntsville temperature yesterday

Maximum temperature yesterday: 77 °F (at 1:53 PM)
Minimum temperature yesterday: 59 °F (at 4:53 AM)
Average temperature yesterday: 68 °F

Past Weeks' High & Low Weather Summary

 TemperatureHumidityPressure
High83 °F (Apr 8, 1:53 PM)100% (Apr 6, 4:01 PM)30.33 "Hg (Apr 6, 4:01 PM)
Low39 °F (Apr 5, 4:53 AM)25% (Apr 5, 11:53 AM)29.73 "Hg (Apr 19, 3:53 AM)
Average66 °F73%30.07 "Hg
* Reported Apr 4 5:53 AM — Apr 19 5:00 AM, Huntsville, Weather by CustomWeather, © 2015

Note: Actual official high and low records may vary slightly from our data, if they occured in-between our weather recording intervals... More about our weather records

Advertising

Huntsville weather history for previous 24 hours

 ConditionsComfort  
Time TempWeatherWind HumidityBarometerVisibility
5:00 AM
Sun, Apr 19
67 °FMostly cloudy.8 mph97%29.73 "Hg9 mi
3:53 AM67 °FRain. Fog.8 mph97%29.73 "Hg5 mi
2:53 AM67 °FHeavy rain. Fog.6 mph97%29.76 "Hg1 mi
1:53 AM68 °FLight rain. Overcast.8 mph87%29.77 "Hg7 mi
12:53 AM67 °FMostly cloudy.7 mph90%29.81 "Hg10 mi
11:53 PM
Sat, Apr 18
68 °FLight rain. Overcast.7 mph87%29.84 "Hg10 mi
10:53 PM69 °FPassing clouds.5 mph81%29.85 "Hg10 mi
9:53 PM69 °FMostly cloudy.6 mph81%29.88 "Hg10 mi
8:53 PM70 °FMostly cloudy.6 mph81%29.89 "Hg10 mi
7:53 PM71 °FPartly sunny.3 mph78%29.88 "Hg10 mi
6:53 PM73 °FPartly sunny.5 mph74%29.87 "Hg10 mi
5:53 PM74 °FBroken clouds.5 mph71%29.88 "Hg10 mi
4:53 PM75 °FBroken clouds.7 mph66%29.88 "Hg10 mi
3:53 PM76 °FBroken clouds.7 mph62%29.87 "Hg10 mi
2:53 PM77 °FPartly sunny.6 mph58%29.90 "Hg10 mi
1:53 PM77 °FBroken clouds.6 mph60%29.91 "Hg10 mi
12:53 PM76 °FBroken clouds.7 mph64%29.94 "Hg10 mi
11:53 AM73 °FBroken clouds.6 mph69%29.97 "Hg10 mi
10:53 AM70 °FBroken clouds.No wind73%29.98 "Hg10 mi
9:53 AM70 °FBroken clouds.No wind73%29.98 "Hg10 mi
8:53 AM64 °FMostly cloudy.5 mph90%29.97 "Hg10 mi
7:53 AM62 °FMore clouds than sun.6 mph93%29.99 "Hg10 mi
6:53 AM60 °FFog.5 mph93%29.98 "Hg6 mi
Weather by CustomWeather, © 2015

See weather overviewHow to use our weather pages